DW9686 Weather Reports


time (UTC)temp
C
wind
direction
speed
KPH
gust
KPH
rain 1hr
cm
rain 24hr
cm
rain mn
cm
humidity
%
barometer
mb
20260903211544 18 155 11.3 17.7 0.00 0.03 0.00 52 1009.8
20260903210052 18 174 9.7 14.5 0.00 0.03 0.00 55 1009.8
20260903204545 18 161 9.7 22.5 0.00 0.03 0.00 56 1009.9
20260903203036 18 171 11.3 19.3 0.00 0.03 0.00 60 1010.0
20260903201537 18 177 9.7 16.1 0.00 0.03 0.00 59 1009.9
20260903200037 17 184 12.9 19.3 0.00 0.03 0.00 59 1010.1
20260903194538 17 178 12.9 19.3 0.00 0.03 0.00 59 1010.3
20260903193036 17 184 9.7 17.7 0.00 0.03 0.00 61 1010.4
20260903191537 17 186 11.3 17.7 0.00 0.03 0.00 62 1010.5
20260903190041 17 220 6.4 14.5 0.00 0.03 0.00 61 1010.7
20260903184544 17 238 3.2 14.5 0.00 0.03 0.00 61 1011.1
20260903183045 17 215 6.4 12.9 0.00 0.03 0.00 66 1011.1
20260903181541 16 216 9.7 17.7 0.00 0.03 0.00 64 1011.1
20260903180041 16 242 11.3 20.9 0.00 0.03 0.00 70 1011.1
20260903174540 16 192 11.3 20.9 0.00 0.03 0.00 68 1011.0
20260903173039 15 202 8.0 14.5 0.00 0.03 0.00 75 1011.1
20260903171545 15 200 4.8 12.9 0.00 0.03 0.00 77 1011.1
20260903170106 15 201 9.7 12.9 0.00 0.03 0.00 77 1011.0
20260903164544 14 192 9.7 14.5 0.00 0.03 0.00 78 1011.0
20260903163044 14 190 6.4 11.3 0.00 0.03 0.00 81 1011.2
20260903161539 13 188 9.7 14.5 0.00 0.03 0.00 82 1010.9
20260903160040 13 196 4.8 11.3 0.00 0.03 0.00 85 1010.9
20260903154544 12 195 4.8 8.0 0.00 0.03 0.00 87 1011.1
20260903153044 12 195 3.2 9.7 0.00 0.03 0.00 87 1011.0
20260903151558 12 195 6.4 11.3 0.00 0.03 0.00 88 1011.0
20260903150047 12 198 6.4 12.9 0.00 0.03 0.00 90 1011.0
20260903144538 11 197 6.4 11.3 0.00 0.03 0.00 91 1010.9
20260903143040 11 197 0.0 4.8 0.00 0.03 0.00 92 1010.7
20260903141542 10 0 0.0 3.2 0.00 0.03 0.00 92 1010.7
20260903140039 10 0 1.6 4.8 0.00 0.03 0.00 91 1010.5
20260903134537 10 197 4.8 6.4 0.00 0.03 0.00 92 1010.5
20260903133039 10 197 1.6 8.0 0.00 0.03 0.00 91 1010.3
20260903131538 10 0 0.0 8.0 0.00 0.03 0.00 91 1010.1
20260903130042 10 197 8.0 14.5 0.00 0.03 0.00 91 1009.9
20260903124542 11 202 9.7 16.1 0.00 0.03 0.00 91 1009.7
20260903123044 11 207 6.4 9.7 0.00 0.03 0.00 91 1009.6
20260903121537 11 208 6.4 11.3 0.00 0.03 0.00 90 1009.7
20260903120046 11 207 8.0 14.5 0.00 0.03 0.00 90 1009.6
20260903114542 11 0 0.0 6.4 0.00 0.03 0.00 90 1009.5
20260903113044 11 205 1.6 8.0 0.00 0.03 0.00 90 1009.5
20260903111536 12 202 8.0 12.9 0.00 0.03 0.00 90 1009.3
20260903110041 12 200 6.4 12.9 0.00 0.03 0.00 89 1009.1
20260903104540 12 198 8.0 12.9 0.00 0.03 0.00 89 1008.9
20260903103044 12 188 11.3 19.3 0.00 0.03 0.00 90 1008.9
20260903101544 12 174 8.0 17.7 0.00 0.03 0.00 91 1009.0
20260903100044 12 173 6.4 16.1 0.00 0.03 0.00 92 1009.0
20260903094555 12 163 6.4 11.3 0.00 0.03 0.00 92 1008.9
20260903093045 13 163 8.0 11.3 0.00 0.03 0.00 92 1008.9
20260903091544 13 163 9.7 16.1 0.00 0.03 0.00 92 1008.7
20260903090039 13 163 9.7 16.1 0.00 0.03 0.00 92 1008.7
20260903084537 13 163 11.3 17.7 0.00 0.03 0.00 92 1008.7
20260903083043 13 163 6.4 12.9 0.00 0.03 0.00 92 1008.5
20260903081540 13 163 9.7 17.7 0.00 0.03 0.00 92 1008.3
20260903080055 13 170 6.4 11.3 0.00 0.03 0.00 91 1008.6
20260903074539 13 170 6.4 11.3 0.00 0.03 0.00 91 1008.5
20260903073215 13 170 6.4 12.9 0.00 0.03 0.00 90 1008.4
20260903071538 13 170 9.7 14.5 0.00 0.03 0.00 89 1008.3
20260903070044 13 175 6.4 12.9 0.00 0.03 0.00 88 1008.2
20260903064539 13 177 4.8 11.3 0.00 0.03 0.03 87 1008.2
20260903063039 14 177 9.7 19.3 0.00 0.03 0.03 87 1008.1
20260903061537 14 173 14.5 20.9 0.00 0.03 0.03 87 1008.0
20260903060039 14 166 12.9 22.5 0.00 0.03 0.03 87 1008.0
20260903054538 14 174 14.5 24.1 0.00 0.03 0.03 88 1008.0
20260903053036 14 167 14.5 24.1 0.00 0.03 0.03 90 1008.1
20260903051547 14 166 9.7 16.1 0.00 0.03 0.03 90 1008.2
20260903050045 15 167 8.0 14.5 0.00 0.03 0.03 90 1008.1
20260903044540 15 169 9.7 16.1 0.00 0.03 0.03 89 1008.0
20260903043042 15 173 9.7 14.5 0.00 0.03 0.03 89 1008.1
20260903041540 15 184 4.8 9.7 0.00 0.03 0.03 88 1008.3
20260903040051 15 186 6.4 11.3 0.00 0.03 0.03 88 1008.3
20260903034538 15 189 4.8 9.7 0.00 0.03 0.03 87 1008.2
20260903033039 15 192 4.8 11.3 0.03 0.03 0.03 87 1008.1
20260903031537 15 208 3.2 6.4 0.03 0.03 0.03 85 1008.0
20260903030043 15 208 3.2 8.0 0.03 0.03 0.03 83 1007.8
20260903024543 15 209 6.4 16.1 0.03 0.03 0.03 82 1007.9
20260903023038 15 219 9.7 19.3 0.00 0.00 0.00 79 1007.9
20260903021541 16 217 9.7 16.1 0.00 0.00 0.00 77 1007.8
20260903020041 16 209 9.7 16.1 0.00 0.00 0.00 75 1007.8
20260903014542 16 216 11.3 20.9 0.00 0.00 0.00 74 1007.7
20260903013042 16 225 12.9 25.7 0.00 0.00 0.00 73 1007.7
20260903011547 16 229 11.3 19.3 0.00 0.00 0.00 73 1007.7
20260903010043 16 215 14.5 25.7 0.00 0.00 0.00 71 1007.7
20260903004536 16 197 11.3 25.7 0.00 0.00 0.00 73 1007.4
20260903003036 17 238 14.5 30.6 0.00 0.00 0.00 69 1007.5
20260903001556 18 222 14.5 27.4 0.00 0.00 0.00 64 1007.3
20260903000037 18 228 16.1 38.6 0.00 0.00 0.00 62 1007.0
20260902234537 18 238 20.9 30.6 0.00 0.00 0.00 62 1006.9
20260902233039 18 232 19.3 29.0 0.00 0.00 0.00 65 1006.9
20260902231539 18 232 19.3 41.8 0.00 0.00 0.00 66 1006.8
20260902230039 18 245 20.9 45.1 0.00 0.00 0.00 66 1006.9
20260902224542 19 207 29.0 48.3 0.00 0.00 0.00 64 1006.8
20260902223040 22 169 6.4 11.3 0.00 0.00 0.00 54 1005.8
20260902221544 23 169 6.4 14.5 0.00 0.00 0.00 49 1005.7
20260902220050 23 158 1.6 9.7 0.00 0.00 0.00 50 1005.8
20260902214540 23 158 6.4 12.9 0.00 0.00 0.00 45 1005.8
20260902213046 23 164 9.7 17.7 0.00 0.00 0.00 45 1006.0